• In Austria
  • List of Countries
  • For 7 days
  • Water Temperature
  • Satellite Maps
  • Weather Map
  • News
  • Weather Widgets
  • user-avatar
    Login

    Hourly Weather Chester

    Today, 23 September, Sunday

    Time Temperature Precipitation Wind Pressure Humidity
    00:00 +8°C° 0 mm 2 mps 761 mmHg 85%
    01:00 +8°C° 0 mm 2 mps 761 mmHg 84%
    02:00 +8°C° 0 mm 2 mps 761 mmHg 83%
    03:00 +8°C° 0 mm 2 mps 761 mmHg 82%
    04:00 +8°C° 0.1 mm 2 mps 761 mmHg 82%
    05:00 +8°C° 0.1 mm 2 mps 761 mmHg 82%
    06:00 +8°C° 0.1 mm 3 mps 761 mmHg 82%
    07:00 +9°C° 0.2 mm 3 mps 762 mmHg 80%
    08:00 +10°C° 0.2 mm 4 mps 762 mmHg 78%
    09:00 +10°C° 0.2 mm 4 mps 763 mmHg 76%
    10:00 +10°C° 0.1 mm 5 mps 763 mmHg 72%
    11:00 +11°C° 0.1 mm 6 mps 764 mmHg 67%
    12:00 +11°C° 0.1 mm 7 mps 764 mmHg 63%
    13:00 +12°C° 0.1 mm 7 mps 765 mmHg 63%
    14:00 +12°C° 0.1 mm 7 mps 765 mmHg 63%
    15:00 +12°C° 0.1 mm 7 mps 766 mmHg 62%
    16:00 +11°C° 0 mm 6 mps 767 mmHg 66%
    17:00 +10°C° 0 mm 6 mps 768 mmHg 70%
    18:00 +9°C° 0 mm 5 mps 768 mmHg 73%
    19:00 +9°C° 0 mm 5 mps 770 mmHg 75%
    20:00 +8°C° 0 mm 4 mps 771 mmHg 77%
    21:00 +8°C° 0 mm 4 mps 772 mmHg 79%
    22:00 +7°C° 0 mm 4 mps 772 mmHg 80%
    23:00 +7°C° 0 mm 4 mps 773 mmHg 81%

    Tomorrow, 24 September, Monday

    Time Temperature Precipitation Wind Pressure Humidity
    00:00 +8°C° 0 mm 3 mps 774 mmHg 82%
    01:00 +8°C° 0 mm 3 mps 774 mmHg 83%
    02:00 +7°C° 0 mm 3 mps 775 mmHg 83%
    03:00 +7°C° 0 mm 3 mps 775 mmHg 84%
    04:00 +7°C° 0 mm 3 mps 776 mmHg 83%
    05:00 +5°C° 0 mm 3 mps 776 mmHg 83%
    06:00 +6°C° 0 mm 2 mps 776 mmHg 82%
    07:00 +8°C° 0 mm 2 mps 777 mmHg 78%
    08:00 +9°C° 0 mm 2 mps 777 mmHg 73%
    09:00 +12°C° 0 mm 2 mps 777 mmHg 69%
    10:00 +12°C° 0 mm 3 mps 777 mmHg 67%
    11:00 +12°C° 0 mm 3 mps 778 mmHg 65%
    12:00 +13°C° 0 mm 3 mps 778 mmHg 63%
    13:00 +13°C° 0 mm 3 mps 777 mmHg 61%
    14:00 +13°C° 0 mm 3 mps 777 mmHg 60%
    15:00 +14°C° 0 mm 3 mps 777 mmHg 59%
    16:00 +12°C° 0 mm 3 mps 777 mmHg 64%
    17:00 +12°C° 0 mm 2 mps 777 mmHg 69%
    18:00 +10°C° 0 mm 2 mps 777 mmHg 74%
    19:00 +9°C° 0 mm 2 mps 777 mmHg 77%
    20:00 +9°C° 0 mm 1 mps 778 mmHg 79%
    21:00 +9°C° 0 mm 1 mps 778 mmHg 81%
    22:00 +8°C° 0 mm 1 mps 778 mmHg 82%
    23:00 +8°C° 0 mm 1 mps 778 mmHg 83%

    Day after tomorrow, 25 September, Tuesday

    Time Temperature Precipitation Wind Pressure Humidity
    00:00 +8°C° 0 mm 1 mps 778 mmHg 83%
    01:00 +8°C° 0 mm 1 mps 777 mmHg 84%
    02:00 +7°C° 0 mm 2 mps 777 mmHg 84%
    03:00 +6°C° 0 mm 2 mps 777 mmHg 85%
    04:00 +6°C° 0 mm 2 mps 777 mmHg 85%
    05:00 +6°C° 0 mm 2 mps 776 mmHg 85%
    06:00 +6°C° 0 mm 2 mps 776 mmHg 85%
    07:00 +7°C° 0 mm 3 mps 776 mmHg 80%
    08:00 +9°C° 0 mm 3 mps 776 mmHg 75%
    09:00 +10°C° 0 mm 4 mps 776 mmHg 70%
    10:00 +12°C° 0 mm 4 mps 775 mmHg 65%
    11:00 +13°C° 0 mm 5 mps 775 mmHg 61%
    12:00 +14°C° 0 mm 5 mps 774 mmHg 56%
    13:00 +15°C° 0 mm 5 mps 774 mmHg 58%
    14:00 +15°C° 0 mm 5 mps 773 mmHg 60%
    15:00 +15°C° 0 mm 5 mps 773 mmHg 62%
    16:00 +14°C° 0 mm 5 mps 773 mmHg 67%
    17:00 +14°C° 0 mm 5 mps 772 mmHg 71%
    18:00 +13°C° 0 mm 4 mps 772 mmHg 76%
    19:00 +12°C° 0 mm 5 mps 772 mmHg 78%
    20:00 +12°C° 0 mm 5 mps 772 mmHg 79%
    21:00 +10°C° 0 mm 5 mps 772 mmHg 81%
    22:00 +10°C° 0 mm 5 mps 772 mmHg 81%
    23:00 +10°C° 0 mm 5 mps 772 mmHg 82%

    26 September, Wednesday

    Time Temperature Precipitation Wind Pressure Humidity
    00:00 +12°C° 0 mm 5 mps 771 mmHg 83%
    01:00 +10°C° 0 mm 6 mps 771 mmHg 84%
    02:00 +10°C° 0 mm 6 mps 771 mmHg 85%
    03:00 +10°C° 0 mm 6 mps 770 mmHg 86%
    04:00 +10°C° 0 mm 5 mps 770 mmHg 86%
    05:00 +10°C° 0 mm 5 mps 770 mmHg 86%
    06:00 +10°C° 0 mm 5 mps 770 mmHg 86%
    07:00 +12°C° 0 mm 5 mps 770 mmHg 83%
    08:00 +14°C° 0 mm 6 mps 770 mmHg 79%
    09:00 +15°C° 0 mm 6 mps 770 mmHg 76%
    10:00 +16°C° 0 mm 6 mps 770 mmHg 74%
    11:00 +17°C° 0 mm 6 mps 770 mmHg 71%
    12:00 +19°C° 0 mm 6 mps 770 mmHg 69%
    13:00 +19°C° 0 mm 6 mps 769 mmHg 70%
    14:00 +20°C° 0 mm 5 mps 769 mmHg 72%
    15:00 +20°C° 0 mm 5 mps 769 mmHg 73%
    16:00 +19°C° 0 mm 5 mps 769 mmHg 78%
    17:00 +17°C° 0 mm 4 mps 769 mmHg 82%
    18:00 +15°C° 0 mm 4 mps 769 mmHg 87%
    19:00 +14°C° 0 mm 3 mps 770 mmHg 89%
    20:00 +14°C° 0 mm 3 mps 770 mmHg 91%
    21:00 +13°C° 0 mm 3 mps 770 mmHg 92%
    22:00 +13°C° 0 mm 3 mps 770 mmHg 93%
    23:00 +13°C° 0 mm 2 mps 770 mmHg 93%

    27 September, Thursday

    Time Temperature Precipitation Wind Pressure Humidity
    00:00 +13°C° 0 mm 2 mps 770 mmHg 93%
    01:00 +13°C° 0 mm 2 mps 770 mmHg 94%
    02:00 +13°C° 0 mm 2 mps 770 mmHg 94%
    03:00 +13°C° 0 mm 2 mps 769 mmHg 94%
    04:00 +13°C° 0 mm 2 mps 769 mmHg 95%
    05:00 +12°C° 0 mm 2 mps 769 mmHg 95%
    06:00 +12°C° 0 mm 2 mps 769 mmHg 95%
    07:00 +14°C° 0 mm 2 mps 769 mmHg 91%
    08:00 +15°C° 0 mm 2 mps 769 mmHg 88%
    09:00 +16°C° 0 mm 2 mps 769 mmHg 85%
    10:00 +18°C° 0 mm 2 mps 768 mmHg 80%
    11:00 +19°C° 0 mm 2 mps 768 mmHg 75%
    12:00 +20°C° 0 mm 2 mps 768 mmHg 70%
    13:00 +21°C° 0 mm 3 mps 767 mmHg 69%
    14:00 +21°C° 0 mm 3 mps 767 mmHg 69%
    15:00 +21°C° 0 mm 3 mps 767 mmHg 68%
    16:00 +19°C° 0 mm 3 mps 767 mmHg 73%
    17:00 +18°C° 0 mm 2 mps 767 mmHg 78%
    18:00 +16°C° 0 mm 2 mps 767 mmHg 84%
    19:00 +15°C° 0 mm 2 mps 767 mmHg 85%
    20:00 +15°C° 0 mm 2 mps 767 mmHg 85%
    21:00 +14°C° 0 mm 1 mps 767 mmHg 86%
    22:00 +14°C° 0 mm 1 mps 767 mmHg 87%
    23:00 +13°C° 0 mm 1 mps 767 mmHg 88%

    28 September, Friday

    Time Temperature Precipitation Wind Pressure Humidity
    00:00 +13°C° 0 mm 1 mps 767 mmHg 88%
    01:00 +13°C° 0 mm 1 mps 767 mmHg 89%
    02:00 +12°C° 0 mm 1 mps 766 mmHg 90%
    03:00 +12°C° 0 mm 1 mps 766 mmHg 91%
    04:00 +12°C° 0 mm 1 mps 766 mmHg 91%
    05:00 +12°C° 0 mm 1 mps 766 mmHg 92%
    06:00 +12°C° 0 mm 1 mps 766 mmHg 93%
    07:00 +13°C° 0 mm 1 mps 766 mmHg 90%
    08:00 +14°C° 0 mm 1 mps 766 mmHg 87%
    09:00 +16°C° 0 mm 2 mps 766 mmHg 84%
    10:00 +16°C° 0 mm 2 mps 766 mmHg 82%
    11:00 +17°C° 0 mm 2 mps 766 mmHg 81%
    12:00 +17°C° 0 mm 2 mps 766 mmHg 80%
    13:00 +17°C° 0.1 mm 2 mps 766 mmHg 80%
    14:00 +17°C° 0.1 mm 3 mps 766 mmHg 80%
    15:00 +17°C° 0.1 mm 3 mps 766 mmHg 81%
    16:00 +17°C° 0.1 mm 4 mps 766 mmHg 83%
    17:00 +15°C° 0.1 mm 4 mps 766 mmHg 86%
    18:00 +14°C° 0.1 mm 4 mps 767 mmHg 88%
    19:00 +14°C° 0.1 mm 4 mps 767 mmHg 88%
    20:00 +13°C° 0.1 mm 4 mps 768 mmHg 88%
    21:00 +13°C° 0.1 mm 4 mps 768 mmHg 88%
    22:00 +12°C° 0 mm 4 mps 768 mmHg 88%
    23:00 +11°C° 0 mm 4 mps 768 mmHg 88%
    Show more